Погода в Становом

Россия / Липецкая область     52°45′52″N   38°20′43″E
темп.,
°C
ветер,
м/с
пор.,
м/с
влажн.,
%
обл.,
%
осадки,
мм/ч
давл.,
гПа
погр.,
м
4 августа, ср
ср400:00+16сз36730 0.0 1014110
03:00+15ссз33780 0.0 101540
06:00+16зсз237643 0.0 101579
09:00+22зсз335014 0.0 1016886
12:00+21зсз3450100 0.0 1016468
15:00+24зсз4440100 0.0 10162094
18:00+22зсз124598 0.0 1017108
21:00+18сз23529 0.0 101738
5 августа, чт
чт500:00+16ссз23610 0.0 101822
03:00+14с11672 0.0 101811
06:00+15с116491 0.0 101813
09:00+22вюв2243100 0.0 1018550
12:00+25ююв3332100 0.0 10171856
15:00+28ююз3528100 0.0 10153008
18:00+26юз2335100 0.0 1015841
21:00+21всв3544100 0.0 1014100
6 августа, пт
пт600:00+21ююв3941100 0.0 1014213
03:00+22ююв51341100 0.0 1013435
06:00+20юв384456 0.0 1014239
09:00+26ююв6934100 0.0 1013736
12:00+31ю682743 0.0 10112544
15:00+32ю6928100 0.0 10103038
18:00+32ю582715 0.0 10082168
21:00+25юв494134 0.0 1009126
7 августа, сб
сб700:00+25юв4104183 0.0 1010248
03:00+22ююв412456 0.0 1010314
06:00+20ююв3105757 0.3 1011220
09:00+22ююв51158100 1.2 1012312
12:00+30ю582767 0.0 1012996
15:00+33ююв372037 0.0 10102160
18:00+31ююв4724100 0.0 1010154
21:00+26вюв3532100 0.0 101185
8 августа, вс
вс800:00+24юв51533100 0.0 1013371
03:00+22юв41035100 0.0 1013194
06:00+21юв383899 0.0 1013155
09:00+26ю6929100 0.0 1014508
12:00+28з5734100 0.0 1015502
15:00+28всв3733100 0.0 1015691
18:00+28в51128100 0.0 1015737
21:00+26вюв51231100 0.0 1016431